Starlink 31566

operational
NORAD ID: 59475 Int'l Des: 2024-068 Owner: SPXS Country: US Constellation: starlink
LEOCIRCULAR

About Starlink 31566

Description loading...

Live Position

Loading 3D Globe...

Upcoming Passes

Altitude History

Altitude vs Time

uPlot chart will show altitude changes over time

Two-Line Element Set

1 59475U 24068W 25304.67863689 .00000627 00000-0 32311-4 0 9996
2 59475 43.0012 42.9707 0001120 284.4022 75.6706 15.27572057 88791
Epoch: Oct 31, 2025 • Age: 10 hours

Current Status

Altitude 483.1 km
Velocity 7.63 km/s
Sub-Earth Point 24.51°N, 1.22°E
Launch Date Apr 10, 2024
Age 1.5 years
Type internet

Technical Details

Classification Payload
Mass 730.00 kg
Dry Mass 700.00 kg
Total Mass 730.00 kg
Length 0.30 m
Diameter 4.10 m
Span 29.00 m
Shape Box + pan
Manufacturer SPXS
Bus Type Starlink V2M
Phase Status In Orbit
Owner/State SPXS/US

Large Constellations

Loading constellations...